EHI
13 20 35 51 56 49 39 27 17 16 15 10 3 0 0 0 0 0 0 0 0 0 0 0 0 0 0 1 2 6 15 26 23 8 0 0 0 0 0 0 0 0 0
5 9 17 29 38 41 36 25 16 13 13 9 4 1 0 0 0 0 0 0 0 0 0 0 0 0 0 1 2 7 14 18 14 5 0 0 0 0 0 0 0 0 0
0 0 2 7 15 22 24 20 13 9 9 9 4 1 0 0 0 0 0 0 0 0 0 0 0 0 0 1 2 8 11 10 6 2 0 0 0 0 0 0 0 0 0
0 0 0 0 2 6 10 11 8 5 5 6 3 1 0 0 0 0 0 0 0 0 0 0 0 0 0 0 1 5 6 5 3 1 0 0 0 0 0 0 0 0 0
0 0 0 0 0 0 2 3 3 2 2 2 1 0 0 0 0 0 0 0 0 0 0 0 0 0 0 0 0 1 2 2 1 0 0 0 0 0 0 0 0 0 0
0 0 0 0 0 0 0 0 0 0 0 0 1 0 0 0 0 0 0 0 0 0 0 0 0 0 0 0 0 0 0 0 0 0 0 0 0 0 0 0 0 0 0
0 0 0 0 0 0 0 0 0 0 0 0 0 0 0 0 0 0 0 0 0 0 0 0 0 0 0 0 0 0 0 0 0 0 0 0 0 0 0 0 0 0 0
0 0 0 0 0 0 0 0 0 0 0 0 0 0 0 0 0 0 0 0 0 0 0 0 0 0 0 0 0 0 0 0 0 0 0 0 0 0 0 0 0 0 0
0 0 0 0 0 0 0 0 0 0 0 0 0 0 0 0 0 0 0 0 0 0 0 0 0 0 0 0 0 0 0 0 0 0 0 0 0 0 0 0 0 0 0
0 0 0 0 0 0 0 0 0 0 0 0 0 0 0 0 0 0 0 0 0 0 0 0 0 0 0 0 0 0 0 0 0 0 0 0 0 0 0 0 0 0 0
0 0 0 0 0 0 0 0 0 0 0 0 0 0 0 0 0 0 0 0 0 0 0 0 0 0 0 0 0 0 0 0 0 0 0 0 0 0 0 0 0 0 0
0 0 0 0 0 0 0 0 0 0 0 0 0 0 0 0 0 0 0 0 0 0 0 0 0 0 0 0 0 0 0 0 0 0 0 0 0 0 0 0 0 0 0
0 0 0 0 0 0 0 0 0 0 0 0 0 0 0 0 0 0 0 0 0 0 0 0 0 0 0 0 0 0 0 0 0 0 0 0 0 0 0 0 0 0 0
0 0 0 0 0 0 0 0 0 0 0 0 0 0 0 0 0 0 0 0 0 0 0 0 0 0 0 0 0 0 0 0 0 0 0 0 0 0 0 0 0 0 0
0 0 0 0 0 0 0 0 0 0 0 0 0 0 0 0 0 0 0 0 0 0 0 0 0 0 0 0 0 0 0 0 0 0 0 0 0 0 0 0 0 0 0
0 0 0 0 0 0 0 0 0 0 0 0 0 0 0 0 0 0 0 0 0 0 0 0 0 0 0 0 0 0 0 0 0 0 0 0 0 0 0 0 0 0 0
0 0 0 0 0 0 0 0 0 0 0 0 0 0 0 0 0 0 0 0 0 0 0 0 0 0 0 0 0 0 0 0 0 0 0 0 0 0 0 0 0 0 0
0 0 0 0 0 0 0 0 0 0 0 0 0 0 0 0 0 0 0 0 0 0 0 0 0 0 0 0 0 0 0 0 0 0 0 0 0 0 0 0 0 0 0
0 0 0 0 0 0 0 0 0 0 0 0 0 0 0 0 0 0 0 0 0 0 0 0 0 0 0 0 0 0 0 0 0 0 0 0 0 0 0 0 0 0 0
0 0 0 0 0 0 0 0 0 0 0 0 0 0 0 0 0 0 0 0 0 0 0 0 0 0 0 0 0 0 0 0 0 0 0 0 0 0 0 0 0 0 0
0 0 0 0 0 0 0 0 0 0 0 0 0 0 0 0 0 0 0 0 0 0 0 0 0 0 0 0 0 0 0 0 0 0 0 0 0 0 0 0 0 0 0
0 0 0 0 0 0 0 0 0 0 0 0 0 0 0 0 0 0 0 0 0 0 0 0 0 0 0 0 0 0 0 0 0 0 0 0 0 0 0 0 0 0 0
0 0 0 0 0 0 0 0 0 0 0 0 0 0 0 0 0 0 0 0 0 0 0 0 0 0 0 0 0 0 0 0 0 0 0 0 0 0 0 0 0 0 0
0 0 0 0 0 0 0 0 0 0 0 0 0 0 0 0 0 0 0 0 0 0 0 0 0 0 0 0 0 0 0 0 0 0 0 0 0 0 0 0 0 0 0
0 0 0 0 0 0 0 0 0 0 0 0 0 0 0 0 0 0 0 0 0 0 0 0 0 0 0 0 0 0 0 0 0 0 0 0 0 0 0 0 0 0 0
0 0 0 0 0 0 0 0 0 0 0 0 0 0 0 0 0 0 0 0 0 0 0 0 0 0 0 0 0 0 0 0 0 0 0 0 0 0 0 0 0 0 0
Wind_Speed
13 13 11 10 10 9 9 10 10 9 9 10 10 10 10 10 10 9 10 10 10 9 8 9 10 10 8 7 7 7 7 6 5 6 5 5 6 6 6 6 7 8 9
13 13 13 13 12 11 11 11 11 11 11 11 10 10 10 10 9 10 10 9 9 8 7 7 6 5 5 4 4 5 5 6 9 11 6 5 6 7 7 7 8 9 9
13 13 13 14 14 14 13 13 12 12 12 12 11 10 10 9 9 9 8 7 7 6 5 5 4 3 2 1 3 4 5 7 9 11 8 5 5 7 8 9 10 9 10
13 13 13 14 14 15 15 14 13 13 13 13 12 11 10 9 9 8 7 6 5 3 3 3 3 1 2 5 5 7 8 9 9 9 8 6 6 8 8 9 9 8 8
10 11 11 11 12 14 15 14 14 13 14 13 13 12 11 9 7 6 6 5 3 1 2 3 5 6 8 6 6 8 9 8 8 7 7 8 8 8 8 8 9 9 8
12 12 11 10 11 12 13 14 14 14 13 13 13 13 12 9 4 2 6 4 3 2 3 5 6 8 11 13 12 9 7 7 8 8 7 8 8 8 7 7 9 8 8
14 14 13 13 12 12 12 12 13 13 13 13 13 13 13 8 9 7 5 5 4 3 4 4 6 8 9 10 11 11 10 8 4 5 9 9 9 7 7 7 5 6 7
16 16 15 15 14 13 12 12 11 10 10 11 12 13 12 11 13 10 7 7 5 4 5 6 7 8 8 9 10 9 9 8 6 7 9 8 8 6 5 7 8 8 7
18 17 16 16 15 14 14 13 11 9 9 10 10 11 12 11 15 13 10 8 7 6 6 6 7 9 8 8 10 11 10 9 13 16 14 12 12 9 4 4 6 7 7
19 18 17 16 16 16 15 14 12 10 9 9 8 9 11 11 15 15 13 9 8 8 7 6 6 8 8 5 9 11 11 10 10 11 10 9 8 6 2 0 3 5 7
19 18 17 16 16 16 15 13 12 11 10 9 8 7 7 8 13 16 14 8 9 9 8 8 8 9 7 3 5 8 11 11 10 10 8 7 7 6 6 5 5 3 4
18 18 17 16 16 14 14 13 12 11 11 10 7 5 4 4 7 13 14 11 5 8 7 8 9 11 8 5 5 11 11 10 9 8 7 7 7 7 7 8 9 10 8
19 18 17 17 15 14 14 13 12 11 10 8 6 5 4 4 5 10 13 9 4 5 6 12 14 14 12 9 12 11 9 7 7 7 7 7 7 8 8 7 8 7 7
18 17 15 15 15 15 12 12 12 11 10 7 6 5 5 5 5 8 10 8 8 9 11 14 13 10 9 12 10 8 6 6 6 6 7 7 8 7 6 6 7 6 7
17 15 14 13 13 13 12 11 11 10 7 6 5 4 5 6 6 9 11 11 11 11 13 11 11 10 10 10 9 7 6 6 6 7 7 8 7 6 6 5 4 5 6
15 14 11 10 10 11 11 11 11 10 6 6 3 4 3 3 7 9 10 10 13 17 14 12 11 11 10 10 9 8 8 7 7 7 7 7 7 7 6 6 5 5 5
14 13 10 9 10 10 10 10 9 10 8 8 8 7 5 6 9 11 10 11 14 16 12 11 11 10 10 10 9 8 8 8 7 7 7 7 7 7 7 6 5 5 5
14 13 11 9 10 10 10 10 9 9 9 8 9 10 9 9 11 13 15 12 9 10 10 11 11 10 10 9 9 8 8 9 8 7 7 7 7 7 7 6 6 5 4
10 8 9 9 10 10 10 10 9 9 7 5 5 7 9 10 12 15 16 10 12 13 11 10 11 11 10 10 9 8 9 9 9 8 8 8 7 7 7 6 6 4 2
7 9 10 8 8 9 9 10 9 8 6 5 5 6 8 9 9 10 10 11 12 13 11 10 10 10 10 10 9 9 9 9 9 8 8 8 7 7 7 7 7 7 5
4 6 11 9 8 8 8 9 8 7 6 5 5 7 12 11 12 14 13 13 12 13 11 10 10 11 11 10 10 10 11 10 10 9 9 8 8 7 6 6 6 5 5
3 4 6 7 7 7 7 7 7 6 5 5 4 7 13 11 12 13 13 13 12 11 11 10 10 10 11 11 10 10 10 10 10 10 9 9 8 7 7 6 6 5 5
2 4 5 5 6 6 7 6 5 5 4 4 5 8 11 11 12 13 14 13 11 10 10 10 10 10 11 10 10 10 10 10 10 10 10 9 8 8 7 7 7 6 6
3 4 4 5 5 6 5 4 4 4 4 5 6 9 11 11 12 13 13 12 11 10 10 10 10 11 14 11 9 10 10 10 11 11 13 10 10 9 8 7 8 8 8
2 3 4 4 4 4 3 3 3 4 5 6 7 9 11 12 12 13 12 11 12 10 11 9 8 10 14 15 13 10 8 7 5 7 12 11 11 10 9 9 8 9 9
1 1 2 2 2 2 2 3 4 4 5 6 8 10 12 13 12 12 11 10 9 9 8 7 9 10 12 13 14 10 8 9 7 4 7 10 12 11 11 10 12 11 11
Wind_Direction
359 349 337 320 302 284 270 264 260 259 259 261 269 277 283 288 292 294 294 298 296 293 286 276 270 261 249 240 234 227 215 201 153 115 112 116 108 105 101 98 95 91 91
351 346 344 337 326 310 294 281 270 260 253 252 257 265 272 281 289 292 296 303 301 298 299 297 288 273 246 239 223 209 192 171 144 132 128 127 124 124 117 111 104 99 97
337 336 337 336 335 328 316 302 285 269 257 252 249 254 263 274 283 287 291 297 301 307 320 324 312 280 226 172 150 139 133 128 129 131 128 130 135 139 131 120 114 116 111
326 324 325 326 327 324 321 314 300 282 265 252 245 246 252 261 269 277 281 283 290 316 348 3 12 37 128 119 112 113 116 117 122 125 130 143 148 151 142 135 129 126 123
302 301 302 308 312 313 316 315 309 293 274 258 247 242 242 246 252 263 265 261 258 237 61 54 56 75 91 99 109 114 119 122 129 135 145 153 152 160 150 136 125 124 123
279 279 278 281 288 295 301 306 305 298 284 266 250 242 237 237 151 202 270 234 224 171 111 94 97 96 95 90 87 87 102 135 145 149 154 148 146 144 135 142 146 142 130
279 277 274 268 267 271 280 287 294 298 293 276 255 242 233 211 163 189 235 238 191 146 119 115 104 106 116 111 99 91 76 68 103 137 131 130 129 127 140 136 105 104 100
283 281 280 274 268 264 266 272 281 292 295 287 268 249 234 201 175 188 206 216 176 147 128 121 119 126 124 129 127 115 97 67 70 99 105 103 102 100 99 101 109 114 116
284 283 282 279 274 270 268 269 274 283 291 291 284 265 241 204 179 185 203 194 169 154 140 131 133 129 125 138 134 126 114 94 71 73 76 79 69 55 40 146 160 160 135
283 282 281 280 276 272 270 269 270 275 280 286 285 277 257 223 183 184 202 199 171 161 146 135 118 127 136 155 150 140 131 124 121 111 102 109 104 97 45 161 180 159 139
284 281 277 276 273 267 263 261 261 264 275 281 279 272 267 251 187 184 199 212 175 177 165 159 128 127 137 134 167 147 138 137 134 131 127 123 118 113 105 77 43 57 106
281 277 273 271 269 266 256 252 253 259 264 267 264 258 245 259 207 190 196 223 210 181 171 146 124 132 130 128 123 123 136 149 146 147 142 132 122 108 90 79 67 60 57
279 275 272 268 263 261 260 252 247 243 251 261 257 245 224 219 193 179 188 203 210 181 125 107 124 132 129 115 120 136 160 160 154 153 140 127 112 106 109 107 100 98 93
276 272 267 264 258 251 247 246 244 243 243 249 252 240 217 206 182 171 178 175 152 132 119 119 128 137 123 117 141 166 177 156 158 145 133 127 128 142 150 148 149 148 130
274 268 263 259 255 254 247 243 245 246 250 258 268 245 211 207 182 181 180 177 176 152 144 148 150 149 148 152 158 157 151 152 155 142 141 146 151 153 147 136 138 140 131
271 263 255 250 248 246 243 233 218 232 183 189 232 264 230 188 154 173 186 168 151 149 160 159 159 159 158 158 158 158 161 160 155 150 154 159 157 153 150 153 158 137 124
266 258 248 240 242 242 240 233 215 198 195 197 205 217 217 161 158 164 156 144 149 161 176 164 164 164 160 159 160 160 157 150 153 159 160 159 154 154 158 160 151 141 131
264 252 242 233 232 234 235 230 220 203 188 194 199 204 194 171 161 151 137 133 156 189 190 170 168 165 163 162 162 157 148 150 165 166 159 159 161 162 165 167 161 154 144
264 244 231 227 225 226 228 225 219 210 199 189 170 166 173 156 147 149 150 169 178 192 197 178 173 169 167 166 161 157 153 159 167 170 162 166 169 170 171 171 143 115 193
258 232 224 222 222 220 218 216 210 197 190 190 174 154 148 149 149 158 178 191 190 191 194 181 174 172 171 169 165 165 161 161 167 182 168 173 179 179 171 174 162 173 191
245 214 209 217 220 216 210 208 201 188 183 183 171 159 168 172 168 170 183 195 195 189 192 183 173 175 176 175 173 174 172 168 174 182 174 178 185 186 183 179 178 188 180
228 207 202 206 206 207 205 199 189 182 182 181 167 162 180 185 176 177 186 193 194 189 187 185 180 180 181 180 179 179 181 180 180 184 183 183 187 193 194 191 190 192 195
207 190 187 191 191 187 201 194 185 182 181 185 180 168 178 186 179 182 187 190 190 190 182 183 187 183 182 183 184 187 188 187 186 187 191 192 194 198 203 203 206 213 219
173 173 180 181 182 186 189 186 185 190 193 189 181 175 181 183 179 183 187 188 188 185 179 184 191 186 182 183 189 194 196 191 189 191 199 205 204 205 207 210 220 226 231
157 171 179 176 173 175 184 195 206 203 193 188 179 179 182 181 178 180 184 183 181 178 179 185 190 190 189 193 199 202 171 158 192 203 192 210 219 219 223 225 229 236 242
109 145 163 162 163 170 195 219 205 184 180 176 177 179 177 175 173 173 173 172 171 172 176 186 197 198 196 200 206 193 153 160 181 229 231 210 217 225 229 236 241 244 250